User: anonymous   Login
Location: Observatory Park - Geauga Park District
(41.5832°N, 81.0716°W)
Time: 04:49:22
(UTC-04:00)
Language:

Tiangong - Orbit

View from above orbital plane
View from above orbital plane
View from above satellite
View from above satellite

Ground track
Ground track

The orbit data is extracted from the following two-line orbital elements,

1 48274U 21035A   21290.15707686  .00011006  00000-0  12876-3 0  9995
2 48274  41.4682 259.1987 0002184 240.4545 233.5790 15.61467866 26773
Epoch (UTC): 17 October 2021 03:46:11
Eccentricity: 0.0002184
inclination: 41.4682°
perigee height: 382 km
apogee height: 385 km
right ascension of ascending node: 259.1987°
argument of perigee: 240.4545°
revolutions per day: 15.61467866
mean anomaly at epoch: 233.5790°
orbit number at epoch: 2677

The dashed part of the orbit path shows where the satellite is in the earth's shadow,  

DLR